sat.trackr.live / text

‹ back to catalog

STARLINK-34914

NORAD 65203 · 2025-176F

PAYLOAD ACTIVE UNKNOWN

§ Identity

Operator
Country
US
Launch date
2025-08-14
Launch site
AFETR
Launch vehicle
Mass (kg)
RCS (m²)

Purposes: comms

External: N2YO · Heavens-Above · Gunter

§ Orbital elements

Epoch: 2026-09-20T20:47:21.393312Z

Period
93.85 min
Inclination
53.1608°
Eccentricity
0.0001645
Mean motion
15.34391116 rev/d
Perigee alt
461.6 km
Apogee alt
463.9 km
Semi-major
6,840.9 km
B*
3.7987e-4
RAAN
321.8447°
Arg perigee
77.0873°
Mean anomaly
283.0314°
Rev number
6,306

§ Raw data

STARLINK-349141 65203U 25176F   26263.86621983  .00012476  00000+0  37987-3 0  99952 65203  53.1608 321.8447 0001645  77.0873 283.0314 15.34391116 63068

JSON: /api/v1/satellites/65203 · /tle

For live sub-satellite position, see the globe view (requires WebGL).

§ Visibility from observer

Set your observer location to see the next 7 days of passes ≥ 10°. The values pass through the URL so the page stays shareable.

No JS? Fill the form by hand. The geolocation button needs JavaScript.